Regional Weather Roundup
Issued by NWS

Home | Current Version | Previous Version | Text Only | Print | Product List | Glossary On
Versions: 1 2 3 4 5 6 7 8 9 10 11 12 13 14 15 16 17 18 19 20 21 22 23 24 25 26 27 28 29 30 31 32 33 34 35 36 37 38 39 40 41 42 43 44 45 46 47 48 49 50
000
ASUS45 KSLC 280010
RWRUT

UTAH REGIONAL WEATHER ROUNDUP
NATIONAL WEATHER SERVICE SALT LAKE CITY UT
600 PM MDT WED MAY 27 2015

UTZ001>011-023>025-280100-

NORTHERN UTAH

CITY           SKY/WX    TMP DP  RH WIND       PRES   REMARKS
BRIGHAM CITY   CLOUDY    66  46  48 SW5       30.04R
HILL AFB       MOSUNNY   65  45  47 W6        30.04R
LOGAN          PTSUNNY   64  49  57 N12       30.03R
OGDEN          PTSUNNY   66  47  50 W6        30.02S
PROVO AIRPORT  PTSUNNY   66  43  42 SE10      30.05R
SALT LAKE CITY PTSUNNY   69  48  47 N7        30.00F
VERNAL         CLOUDY    61  45  55 CALM      30.07R
WENDOVER       CLOUDY    59  43  55 E13       30.02F
HEBER CITY     CLOUDY    64  41  42 SW12      30.05R
WEST JORDAN    MOSUNNY   66  48  52 N6        30.04R

$$

UTZ012>022-026-027-280100-

SOUTHERN/CENTRAL UTAH

CITY           SKY/WX    TMP DP  RH WIND       PRES   REMARKS
BLANDING       MOSUNNY   73  33  22 SW12G20   30.13S
BRYCE CANYON   MOSUNNY   66  22  18 S15       30.15S
CEDAR CITY     MOSUNNY   74  26  16 SW15      30.03R
DELTA          CLOUDY    55  47  74 S16       30.09S
HANKSVILLE     PTSUNNY   77  34  20 NW7       29.97F
MILFORD        CLOUDY    60  46  59 NE20G26   30.07R
MOAB/CYNLANDS  CLOUDY    76  39  26 N18       29.95S
PRICE          CLOUDY    62  44  51 MISG      30.10R
ST GEORGE      CLOUDY    88  30  12 W8G22     29.88S
KANAB          MOSUNNY   79  21  11 S13G20    30.03S

$$

REGIONAL REPORTS     COLORADO/ARIZONA

CITY           SKY/WX    TMP DP  RH WIND       PRES   REMARKS
CRAIG, CO      CLOUDY    64  42  44 E7        30.09F
GRAND JUNCTION PTSUNNY   74  39  28 VRB3      29.99F
RIFLE          PTSUNNY   67  47  48 E7        30.03F
MONTROSE       CLOUDY    68  40  35 SE22G30   30.11R
CORTEZ         SUNNY     73  36  25 S14       30.07F
PAGE, AZ       MOSUNNY   83  34  17 NE7       29.94F
GRAND CANYON   SUNNY     72  20  14 SW10G18   30.12F
KINGMAN        MOSUNNY   85  24  11 SW15G24   29.94F
FLAGSTAFF      MOSUNNY   67  26  21 SW14G22   30.16F

$$

REGIONAL REPORTS    NEVADA/IDAHO/WYOMING

CITY           SKY/WX    TMP DP  RH WIND       PRES   REMARKS
LAS VEGAS, NV  MOSUNNY   92  32  12 S12G23    29.78F
ELY            CLOUDY    54  47  77 N9        30.13F
ELKO           MOSUNNY   71  44  37 E10       30.00R
POCATELLO, ID  PTSUNNY   59  51  75 E12       30.02R
BURLEY         CLOUDY    61  43  51 W6        29.99R
EVANSTON, WY   PTSUNNY   60  39  45 W16G22    30.10F
ROCK SPRINGS   CLOUDY    51  44  77 N6        30.11F
KEMMERER       MOSUNNY   55  32  41 W16G24    30.12F

$$


USA.gov is the U.S. government's official web portal to all federal, state and local government web resources and services.